This is the latest recevied weather packets stored in our database for station/object EA3HRE-10. If no packets are shown the sender has not sent any weather packets the latest 10 day(s).
| Time | Temp. | Humidity | Pressure | Rain* | Wind** | Luminosity | Snow |
|---|---|---|---|---|---|---|---|
| 1777579773 | 25° C | 46% | 1018.5 hPa | - | - | - | - |
| 1777578873 | 25.56° C | 46% | 1018.4 hPa | - | - | - | - |
| 1777577972 | 25.56° C | 45% | 1018.2 hPa | - | - | - | - |
| 1777577071 | 25.56° C | 44% | 1018 hPa | - | - | - | - |
| 1777576171 | 25.56° C | 44% | 1017.9 hPa | - | - | - | - |
| 1777575270 | 25° C | 46% | 1017.8 hPa | - | - | - | - |
| 1777575154 | 25° C | 47% | 1017.8 hPa | - | - | - | - |
| 1777574253 | 25° C | 47% | 1017.6 hPa | - | - | - | - |
| 1777573358 | 25° C | 47% | 1017.5 hPa | - | - | - | - |
| 1777572453 | 25° C | 47% | 1017.1 hPa | - | - | - | - |
| 1777571544 | 25.56° C | 48% | 1017.1 hPa | - | - | - | - |
| 1777571208 | 25.56° C | 47% | 1017 hPa | - | - | - | - |
| 1777570308 | 25° C | 47% | 1017.1 hPa | - | - | - | - |
| 1777569408 | 25.56° C | 49% | 1016.9 hPa | - | - | - | - |
| 1777568507 | 26.11° C | 46% | 1016.8 hPa | - | - | - | - |
| 1777567607 | 25.56° C | 46% | 1016.8 hPa | - | - | - | - |
| 1777566707 | 25.56° C | 47% | 1016.8 hPa | - | - | - | - |
| 1777565807 | 26.11° C | 45% | 1016.7 hPa | - | - | - | - |
| 1777564907 | 26.11° C | 45% | 1016.8 hPa | - | - | - | - |
| 1777564007 | 26.11° C | 45% | 1016.6 hPa | - | - | - | - |
| 1777563145 | 25.56° C | 45% | 1016.5 hPa | - | - | - | - |
| 1777563107 | 25.56° C | 45% | 1016.5 hPa | - | - | - | - |
| 1777562207 | 26.11° C | 45% | 1016.3 hPa | - | - | - | - |
| 1777561306 | 26.11° C | 44% | 1016.2 hPa | - | - | - | - |
| 1777560406 | 26.11° C | 44% | 1016.3 hPa | - | - | - | - |
* Rain since midnight (hover to see other rain measurements)
** Current wind speed in m/s (hover to see current wind gust speed)